EW6470 Weather Reports


Display with metric or nautical units.
time (UTC)temp
F
wind
direction
speed
MPH
gust
MPH
rain 1hr
in
rain 24hr
in
rain mn
in
humidity
%
barometer
mb
20260903030521 58 0 0.0 2.0 0.00 0.00 0.00 56 1014.6
20260903030040 59 0 0.0 2.0 0.00 0.00 0.00 54 1014.7
20260903025518 59 0 0.0 1.0 0.00 0.00 0.00 54 1014.6
20260903025020 59 0 0.0 1.0 0.00 0.00 0.00 52 1014.5
20260903024540 60 68 0.0 2.0 0.00 0.00 0.00 51 1014.4
20260903024019 61 0 0.0 2.0 0.00 0.00 0.00 52 1014.5
20260903023524 62 244 0.0 3.0 0.00 0.00 0.00 47 1014.3
20260903023032 62 0 0.0 4.0 0.00 0.00 0.00 49 1014.3
20260903022520 63 234 1.0 4.0 0.00 0.00 0.00 46 1014.4
20260903022017 63 196 0.0 1.0 0.00 0.00 0.00 49 1014.4
20260903021536 63 0 0.0 3.0 0.00 0.00 0.00 49 1014.4
20260903021018 62 0 0.0 4.0 0.00 0.00 0.00 49 1014.4
20260903020520 62 258 0.0 4.0 0.00 0.00 0.00 47 1014.3
20260903020035 62 188 1.0 4.0 0.00 0.00 0.00 47 1014.3
20260903015520 62 155 1.0 3.0 0.00 0.00 0.00 47 1014.3
20260903015018 62 241 0.0 4.0 0.00 0.00 0.00 47 1014.1
20260903014536 63 0 0.0 5.0 0.00 0.00 0.00 48 1014.1
20260903014016 63 141 1.0 5.0 0.00 0.00 0.00 44 1014.1
20260903013516 62 207 2.0 4.0 0.00 0.00 0.00 41 1014.1
20260903013034 63 173 1.0 3.0 0.00 0.00 0.00 45 1014.1
20260903012518 63 0 0.0 3.0 0.00 0.00 0.00 51 1013.9
20260903012020 63 286 0.0 3.0 0.00 0.00 0.00 51 1014.1
20260903011540 62 0 0.0 3.0 0.00 0.00 0.00 53 1013.9
20260903011021 62 281 1.0 3.0 0.00 0.00 0.00 50 1013.9
20260903010519 62 193 1.0 3.0 0.00 0.00 0.00 50 1013.9
20260903010036 62 0 0.0 5.0 0.00 0.00 0.00 52 1013.8
20260903005519 62 74 1.0 5.0 0.00 0.00 0.00 49 1013.8
20260903005018 62 207 0.0 2.0 0.00 0.00 0.00 51 1013.8
20260903004535 63 243 1.0 3.0 0.00 0.00 0.00 49 1013.7
20260903004016 63 164 0.0 6.0 0.00 0.00 0.00 52 1013.6
20260903003518 62 151 1.0 7.0 0.00 0.00 0.00 50 1013.7
20260903003036 62 290 1.0 7.0 0.00 0.00 0.00 52 1013.5
20260903002522 62 220 0.0 5.0 0.00 0.00 0.00 50 1013.5
20260903002020 63 169 2.0 5.0 0.00 0.00 0.00 51 1013.6
20260903001531 63 147 1.0 4.0 0.00 0.00 0.00 49 1013.5
20260903001016 62 234 0.0 3.0 0.00 0.00 0.00 52 1013.4
20260903000516 62 0 0.0 3.0 0.00 0.00 0.00 48 1013.4
20260903000034 62 0 0.0 4.0 0.00 0.00 0.00 46 1013.3
20260902235518 62 263 1.0 5.0 0.00 0.00 0.00 48 1013.3
20260902235020 62 233 2.0 6.0 0.00 0.00 0.00 49 1013.2
20260902234535 61 258 1.0 7.0 0.00 0.00 0.00 48 1013.2
20260902234020 61 175 2.0 7.0 0.00 0.00 0.00 49 1013.2
20260902233520 61 211 1.0 6.0 0.00 0.00 0.00 50 1013.1
20260902233038 61 293 1.0 5.0 0.00 0.00 0.00 51 1013.1
20260902232519 61 173 2.0 5.0 0.00 0.00 0.00 49 1013.0
20260902232019 62 262 2.0 6.0 0.00 0.00 0.00 51 1013.0
20260902231546 61 234 3.0 6.0 0.00 0.00 0.00 51 1012.8
20260902231018 62 212 1.0 5.0 0.00 0.00 0.00 56 1012.8
20260902230516 61 0 0.0 4.0 0.00 0.00 0.00 51 1012.8
20260902230034 61 263 0.0 4.0 0.00 0.00 0.00 50 1012.8
20260902225518 61 221 1.0 3.0 0.00 0.00 0.00 50 1012.7
20260902225021 61 271 0.0 3.0 0.00 0.00 0.00 54 1012.6
20260902224535 61 147 1.0 3.0 0.00 0.00 0.00 49 1012.5
20260902224019 61 278 1.0 3.0 0.00 0.00 0.00 50 1012.5
20260902223518 61 152 1.0 4.0 0.00 0.00 0.00 50 1012.3
20260902223034 60 237 0.0 4.0 0.00 0.00 0.00 51 1012.4
20260902222515 60 150 1.0 3.0 0.00 0.00 0.00 51 1012.4
20260902222017 60 264 0.0 6.0 0.00 0.00 0.00 51 1012.3
20260902221534 60 290 1.0 6.0 0.00 0.00 0.00 51 1012.3
20260902221015 60 229 1.0 6.0 0.00 0.00 0.00 53 1012.3
20260902220521 59 223 1.0 2.0 0.00 0.00 0.00 53 1012.2
20260902220035 59 287 0.0 6.0 0.00 0.00 0.00 55 1012.1
20260902215518 59 217 0.0 6.0 0.00 0.00 0.00 54 1012.1
20260902215018 59 262 1.0 4.0 0.00 0.00 0.00 57 1012.2
20260902214533 59 296 0.0 8.0 0.00 0.00 0.00 56 1012.0
20260902214016 58 265 2.0 8.0 0.00 0.00 0.00 58 1012.0
20260902213517 58 248 1.0 4.0 0.00 0.00 0.00 59 1011.9
20260902213034 57 261 0.0 4.0 0.00 0.00 0.00 62 1011.9
20260902212520 57 278 1.0 5.0 0.00 0.00 0.00 60 1011.9
20260902212021 57 230 1.0 5.0 0.00 0.00 0.00 61 1011.8
20260902211534 57 210 1.0 5.0 0.00 0.00 0.00 63 1012.0
20260902211017 57 208 1.0 3.0 0.00 0.00 0.00 64 1011.9
20260902210516 56 0 1.0 3.0 0.00 0.00 0.00 64 1011.9
20260902210037 56 274 1.0 2.0 0.00 0.00 0.00 67 1012.0
20260902205516 56 232 0.0 3.0 0.00 0.00 0.00 68 1012.0
20260902205016 56 190 0.0 4.0 0.00 0.00 0.00 69 1011.8
20260902204542 55 0 0.0 4.0 0.00 0.00 0.00 67 1011.9
20260902204018 55 0 1.0 3.0 0.00 0.00 0.00 70 1011.9
20260902203520 54 213 1.0 3.0 0.00 0.00 0.00 71 1011.8
20260902203036 53 239 0.0 3.0 0.00 0.00 0.00 75 1011.8
20260902202518 53 229 0.0 4.0 0.00 0.00 0.00 74 1011.8
20260902202022 53 238 1.0 4.0 0.00 0.00 0.00 78 1011.7
20260902201533 52 206 0.0 1.0 0.00 0.00 0.00 78 1011.7
20260902201017 52 29 0.0 1.0 0.00 0.00 0.00 80 1011.7
20260902200519 51 0 0.0 1.0 0.00 0.00 0.00 80 1011.6
20260902200034 51 0 0.0 1.0 0.00 0.00 0.00 81 1011.7
20260902195519 50 0 0.0 2.0 0.00 0.00 0.00 82 1011.6
20260902195019 50 248 0.0 3.0 0.00 0.00 0.00 81 1011.6
20260902194539 50 205 0.0 3.0 0.00 0.00 0.00 83 1011.6
20260902194024 49 0 0.0 1.0 0.00 0.00 0.00 83 1011.4
20260902193518 49 0 0.0 2.0 0.00 0.00 0.00 84 1011.4
20260902193034 49 231 0.0 2.0 0.00 0.00 0.00 84 1011.4
20260902192518 48 0 0.0 0.0 0.00 0.00 0.00 85 1011.5
20260902192018 48 0 0.0 1.0 0.00 0.00 0.00 87 1011.5
20260902191533 48 0 0.0 1.0 0.00 0.00 0.00 87 1011.5
20260902191016 48 0 0.0 1.0 0.00 0.00 0.00 87 1011.5
20260902190517 47 0 0.0 0.0 0.00 0.00 0.00 88 1011.5
20260902190034 47 0 0.0 1.0 0.00 0.00 0.00 89 1011.4
20260902185524 47 0 0.0 2.0 0.00 0.00 0.00 90 1011.3
20260902185021 46 0 1.0 2.0 0.00 0.00 0.00 89 1011.2
20260902184536 46 0 0.0 0.0 0.00 0.00 0.00 93 1011.1
20260902184018 46 0 0.0 0.0 0.00 0.00 0.00 93 1011.1
20260902183516 45 0 0.0 1.0 0.00 0.00 0.00 95 1011.0
20260902183044 45 0 0.0 1.0 0.00 0.00 0.00 96 1011.0
20260902182518 45 0 0.0 2.0 0.00 0.00 0.00 97 1010.9
20260902182020 44 0 0.0 3.0 0.00 0.00 0.00 97 1011.0
20260902181535 44 167 0.0 3.0 0.00 0.00 0.00 97 1010.8
20260902181021 43 0 0.0 0.0 0.00 0.00 0.00 97 1010.7
20260902180520 43 0 0.0 0.0 0.00 0.00 0.00 97 1010.6
20260902180033 42 0 0.0 0.0 0.00 0.00 0.00 97 1010.6
20260902175517 42 0 0.0 0.0 0.00 0.00 0.00 96 1010.6
20260902175018 41 0 0.0 0.0 0.00 0.00 0.00 96 1010.4
20260902174534 40 0 0.0 0.0 0.00 0.00 0.00 96 1010.4
20260902174016 40 0 0.0 0.0 0.00 0.00 0.00 96 1010.3
20260902173516 39 0 0.0 0.0 0.00 0.00 0.00 96 1010.3
20260902173033 39 0 0.0 0.0 0.00 0.00 0.00 96 1010.2
20260902172518 38 0 0.0 0.0 0.00 0.00 0.00 96 1010.4
20260902172020 37 0 0.0 0.0 0.00 0.00 0.00 96 1010.2
20260902171534 37 0 0.0 0.0 0.00 0.00 0.00 96 1010.2
20260902171016 36 0 0.0 0.0 0.00 0.00 0.00 96 1010.1
20260902170519 36 0 0.0 0.0 0.00 0.00 0.00 96 1010.0
20260902170035 35 0 0.0 0.0 0.00 0.00 0.00 96 1010.0
20260902165517 34 0 0.0 0.0 0.00 0.00 0.00 96 1009.9
20260902165021 34 0 0.0 0.0 0.00 0.00 0.00 96 1010.0
20260902164538 34 0 0.0 0.0 0.00 0.00 0.00 96 1009.6
20260902164017 33 0 0.0 0.0 0.00 0.00 0.00 96 1009.5
20260902163521 33 0 0.0 0.0 0.00 0.00 0.00 96 1009.5
20260902163034 33 0 0.0 0.0 0.00 0.00 0.00 96 1009.6
20260902162519 32 0 0.0 0.0 0.00 0.00 0.00 96 1009.6
20260902162019 32 0 0.0 0.0 0.00 0.00 0.00 96 1009.5
20260902161534 32 0 0.0 0.0 0.00 0.00 0.00 95 1009.5
20260902161016 32 0 0.0 0.0 0.00 0.00 0.00 95 1009.5
20260902160517 32 0 0.0 0.0 0.00 0.00 0.00 95 1009.4
20260902160036 32 0 0.0 0.0 0.00 0.00 0.00 95 1009.2
20260902155518 32 0 0.0 0.0 0.00 0.00 0.00 95 1009.2
20260902155016 32 0 0.0 0.0 0.00 0.00 0.00 95 1009.3
20260902154538 31 0 0.0 0.0 0.00 0.00 0.00 95 1009.2
20260902154022 31 0 0.0 0.0 0.00 0.00 0.00 95 1009.1
20260902153520 31 0 0.0 0.0 0.00 0.00 0.00 95 1009.1
20260902153038 31 0 0.0 0.0 0.00 0.00 0.00 95 1009.2
20260902152516 31 0 0.0 0.0 0.00 0.00 0.00 95 1009.3
20260902152021 31 0 0.0 0.0 0.00 0.00 0.00 95 1009.2
20260902151535 31 0 0.0 0.0 0.00 0.00 0.00 95 1009.1
20260902151019 31 0 0.0 0.0 0.00 0.00 0.00 95 1009.1
20260902150515 31 0 0.0 0.0 0.00 0.00 0.00 95 1009.0
20260902150035 31 0 0.0 0.0 0.00 0.00 0.00 95 1008.9
20260902145521 31 0 0.0 0.0 0.00 0.00 0.00 95 1009.0
20260902145017 31 0 0.0 0.0 0.00 0.00 0.00 95 1009.1
20260902144538 32 0 0.0 0.0 0.00 0.00 0.00 95 1009.0
20260902144019 32 0 0.0 0.0 0.00 0.00 0.00 95 1008.9
20260902143519 32 0 0.0 0.0 0.00 0.00 0.00 95 1008.9
20260902143034 32 0 0.0 0.0 0.00 0.00 0.00 95 1008.9
20260902142518 32 0 0.0 0.0 0.00 0.00 0.00 95 1009.0
20260902142015 32 0 0.0 0.0 0.00 0.00 0.00 95 1008.9
20260902141535 32 0 0.0 0.0 0.00 0.00 0.00 95 1008.9
20260902141016 32 0 0.0 0.0 0.00 0.00 0.00 95 1008.9
20260902140516 32 0 0.0 0.0 0.00 0.00 0.00 95 1008.8
20260902140038 33 0 0.0 0.0 0.00 0.00 0.00 95 1008.6
20260902135516 33 0 0.0 0.0 0.00 0.00 0.00 95 1008.6
20260902135016 33 0 0.0 0.0 0.00 0.00 0.00 95 1008.7
20260902134534 33 0 0.0 0.0 0.00 0.00 0.00 95 1008.6
20260902134018 33 0 0.0 0.0 0.00 0.00 0.00 95 1008.6
20260902133519 33 0 0.0 0.0 0.00 0.00 0.00 95 1008.5
20260902133033 34 0 0.0 0.0 0.00 0.00 0.00 95 1008.3
20260902132521 34 0 0.0 0.0 0.00 0.00 0.00 95 1008.3
20260902132020 34 0 0.0 0.0 0.00 0.00 0.00 95 1008.1
20260902131536 33 0 0.0 0.0 0.00 0.00 0.00 95 1008.2
20260902131022 33 0 0.0 0.0 0.00 0.00 0.00 95 1008.3
20260902130517 33 0 0.0 0.0 0.00 0.00 0.00 95 1008.2
20260902130036 33 0 0.0 0.0 0.00 0.00 0.00 95 1008.2
20260902125518 34 0 0.0 0.0 0.00 0.00 0.00 95 1008.1
20260902125018 34 0 0.0 0.0 0.00 0.00 0.00 95 1008.0
20260902124536 34 0 0.0 0.0 0.00 0.00 0.00 95 1007.9
20260902124017 34 0 0.0 0.0 0.00 0.00 0.00 95 1007.8
20260902123517 34 0 0.0 0.0 0.00 0.00 0.00 95 1007.7
20260902123035 34 0 0.0 0.0 0.00 0.00 0.00 95 1007.7
20260902122524 34 0 0.0 0.0 0.00 0.00 0.00 95 1007.7
20260902122017 34 0 0.0 0.0 0.00 0.00 0.00 95 1007.7
20260902121535 34 0 0.0 0.0 0.00 0.00 0.00 95 1007.8
20260902121016 34 0 0.0 0.0 0.00 0.00 0.00 95 1007.7
20260902120520 34 0 0.0 0.0 0.00 0.00 0.00 95 1007.8
20260902120034 34 0 0.0 0.0 0.00 0.00 0.00 95 1007.7
20260902115517 35 0 0.0 0.0 0.00 0.00 0.00 95 1007.8
20260902115018 35 0 0.0 0.0 0.00 0.00 0.00 95 1007.7
20260902114533 35 0 0.0 0.0 0.00 0.00 0.00 95 1007.6
20260902114021 35 0 0.0 0.0 0.00 0.00 0.00 95 1007.5
20260902113520 35 0 0.0 0.0 0.00 0.00 0.00 95 1007.6
20260902113034 35 0 0.0 0.0 0.00 0.00 0.00 95 1007.7
20260902112518 35 0 0.0 0.0 0.00 0.00 0.00 95 1007.7
20260902112018 35 0 0.0 0.0 0.00 0.00 0.00 95 1007.7
20260902111531 35 0 0.0 0.0 0.00 0.00 0.00 95 1007.8
20260902111016 35 0 0.0 0.0 0.00 0.00 0.00 95 1007.7
20260902110516 35 0 0.0 0.0 0.00 0.00 0.00 95 1007.5
20260902110034 35 0 0.0 0.0 0.00 0.00 0.00 95 1007.6
20260902105516 35 0 0.0 0.0 0.00 0.00 0.00 95 1007.7
20260902105015 34 0 0.0 0.0 0.00 0.00 0.00 95 1007.5
20260902104539 34 0 0.0 0.0 0.00 0.00 0.00 95 1007.8
20260902104018 34 0 0.0 0.0 0.00 0.00 0.00 95 1007.6
20260902103520 34 0 0.0 0.0 0.00 0.00 0.00 95 1007.5
20260902103043 35 0 0.0 0.0 0.00 0.00 0.00 95 1007.5
20260902102517 35 0 0.0 0.0 0.00 0.00 0.00 95 1007.5
20260902102019 35 0 0.0 0.0 0.00 0.00 0.00 95 1007.5
20260902101542 35 0 0.0 0.0 0.00 0.00 0.00 94 1007.5
20260902101023 35 0 0.0 0.0 0.00 0.00 0.00 94 1007.6
20260902100517 35 0 0.0 0.0 0.00 0.00 0.00 94 1007.5
20260902100035 35 0 0.0 0.0 0.00 0.00 0.00 94 1007.6
20260902095518 35 0 0.0 0.0 0.00 0.00 0.00 94 1007.5
20260902095019 36 0 0.0 0.0 0.00 0.00 0.00 94 1007.6
20260902094533 36 0 0.0 0.0 0.00 0.00 0.00 94 1007.5
20260902094018 36 0 0.0 0.0 0.00 0.00 0.00 94 1007.6
20260902093518 36 0 0.0 0.0 0.00 0.00 0.00 94 1007.4
20260902093041 36 0 0.0 0.0 0.00 0.00 0.00 94 1007.5
20260902092518 36 0 0.0 0.0 0.00 0.00 0.00 94 1007.5
20260902092018 37 0 0.0 0.0 0.00 0.00 0.00 94 1007.5
20260902091541 37 0 0.0 0.0 0.00 0.00 0.00 94 1007.5
20260902091017 37 0 0.0 0.0 0.00 0.00 0.00 94 1007.5
20260902090517 37 0 0.0 0.0 0.00 0.00 0.00 94 1007.5
20260902090035 37 0 0.0 0.0 0.00 0.00 0.00 94 1007.4
20260902085519 38 0 0.0 0.0 0.00 0.00 0.00 94 1007.5
20260902085019 38 0 0.0 0.0 0.00 0.00 0.00 94 1007.5
20260902084547 38 0 0.0 0.0 0.00 0.00 0.00 94 1007.5
20260902084017 38 0 0.0 0.0 0.00 0.00 0.00 94 1007.4
20260902083519 38 0 0.0 0.0 0.00 0.00 0.00 94 1007.4
20260902083044 39 0 0.0 0.0 0.00 0.00 0.00 94 1007.3
20260902082517 39 0 0.0 0.0 0.00 0.00 0.00 94 1007.4
20260902082018 39 0 0.0 0.0 0.00 0.00 0.00 94 1007.5
20260902081535 39 0 0.0 0.0 0.00 0.00 0.00 94 1007.4
20260902081019 39 0 0.0 0.0 0.00 0.00 0.00 94 1007.4
20260902080520 39 0 0.0 0.0 0.00 0.00 0.00 94 1007.4
20260902080031 40 0 0.0 0.0 0.00 0.00 0.00 94 1007.4
20260902075518 40 0 0.0 0.0 0.00 0.00 0.00 94 1007.4
20260902075018 40 0 0.0 0.0 0.00 0.00 0.00 94 1007.3
20260902074535 40 0 0.0 0.0 0.00 0.00 0.00 94 1007.4
20260902074017 40 0 0.0 0.0 0.00 0.00 0.00 94 1007.4
20260902073515 40 0 0.0 0.0 0.00 0.00 0.00 94 1007.4
20260902073035 40 0 0.0 0.0 0.00 0.00 0.00 94 1007.3
20260902072520 41 0 0.0 0.0 0.00 0.00 0.00 93 1007.3
20260902072019 41 0 0.0 0.0 0.00 0.00 0.00 93 1007.4
20260902071538 41 0 0.0 0.0 0.00 0.00 0.00 93 1007.4
20260902071022 41 0 0.0 0.0 0.00 0.00 0.00 93 1007.3
20260902070519 41 0 0.0 0.0 0.00 0.00 0.00 93 1007.3
20260902070035 41 0 0.0 0.0 0.00 0.00 0.00 93 1007.2
20260902065518 42 0 0.0 0.0 0.00 0.00 0.00 93 1007.3
20260902065019 42 0 0.0 0.0 0.00 0.00 0.00 93 1007.3
20260902064537 42 0 0.0 0.0 0.00 0.00 0.00 93 1007.3
20260902064016 42 0 0.0 0.0 0.00 0.00 0.00 93 1007.3
20260902063520 43 0 0.0 0.0 0.00 0.00 0.00 92 1007.3
20260902063034 43 0 0.0 0.0 0.00 0.00 0.00 92 1007.3
20260902062520 43 0 0.0 0.0 0.00 0.00 0.00 92 1007.1
20260902062020 43 0 0.0 0.0 0.00 0.00 0.00 92 1007.0
20260902061545 43 0 0.0 0.0 0.00 0.00 0.00 92 1007.1
20260902061018 44 0 0.0 0.0 0.00 0.00 0.00 92 1007.0
20260902060518 44 0 0.0 0.0 0.00 0.00 0.00 92 1007.1
20260902060033 44 0 0.0 0.0 0.00 0.00 0.00 91 1007.0
20260902055521 45 0 0.0 0.0 0.00 0.00 0.00 91 1007.1
20260902055019 45 0 0.0 0.0 0.00 0.00 0.00 91 1006.9
20260902054537 45 0 0.0 0.0 0.00 0.00 0.00 90 1006.9
20260902054019 45 0 0.0 0.0 0.00 0.00 0.00 90 1007.0
20260902053517 46 0 0.0 0.0 0.00 0.00 0.00 90 1006.9
20260902053036 46 0 0.0 0.0 0.00 0.00 0.00 90 1007.0
20260902052521 46 0 0.0 0.0 0.00 0.00 0.00 89 1007.0
20260902052017 47 0 0.0 0.0 0.00 0.00 0.00 89 1006.9
20260902051537 48 0 0.0 0.0 0.00 0.00 0.00 89 1007.0
20260902051016 48 0 0.0 0.0 0.00 0.00 0.00 89 1006.8
20260902050521 48 0 0.0 0.0 0.00 0.00 0.00 88 1006.9
20260902050038 49 0 0.0 0.0 0.00 0.00 0.00 88 1006.8
20260902045520 49 0 0.0 0.0 0.00 0.00 0.00 87 1006.7
20260902045022 50 0 0.0 0.0 0.00 0.00 0.00 86 1006.7
20260902044546 50 0 0.0 0.0 0.00 0.00 0.00 85 1006.7
20260902044019 50 0 0.0 0.0 0.00 0.00 0.00 84 1006.7
20260902043518 51 0 0.0 0.0 0.00 0.00 0.00 84 1006.7
20260902043031 51 0 0.0 0.0 0.00 0.00 0.00 83 1006.7
20260902042516 52 0 0.0 0.0 0.00 0.00 0.00 81 1006.7
20260902042018 52 0 0.0 0.0 0.00 0.00 0.00 80 1006.8
20260902041535 52 0 0.0 0.0 0.00 0.00 0.00 79 1006.8
20260902041017 53 0 0.0 0.0 0.00 0.00 0.00 78 1006.8
20260902040516 53 0 0.0 0.0 0.00 0.00 0.00 77 1006.8
20260902040035 53 0 0.0 0.0 0.00 0.00 0.00 76 1006.8
20260902035516 54 0 0.0 1.0 0.00 0.00 0.00 74 1006.8
20260902035017 54 0 0.0 3.0 0.00 0.00 0.00 73 1006.9
20260902034535 55 250 1.0 3.0 0.00 0.00 0.00 71 1006.7
20260902034018 55 0 0.0 3.0 0.00 0.00 0.00 71 1006.7
20260902033516 55 0 0.0 4.0 0.00 0.00 0.00 70 1006.6
20260902033033 55 165 1.0 4.0 0.00 0.00 0.00 69 1006.6
20260902032516 55 192 1.0 4.0 0.00 0.00 0.00 69 1006.6
20260902032017 55 223 1.0 4.0 0.00 0.00 0.00 69 1006.6
20260902031539 55 157 1.0 4.0 0.00 0.00 0.00 69 1006.6
20260902031016 56 175 2.0 4.0 0.00 0.00 0.00 68 1006.5